Location: Ahstedt
(52.2048°N, 10.1060°E)
Time: 15:09:24
(UTC+00:00)

Cosmos 1470 Rocket - Visible Passes

Search period start: 11 April 2026 00:00
Search period end: 21 April 2026 00:00
Orbit: 596 x 626 km, 82.5° (Epoch: 11 April)

Date Brightness Start Highest point End Pass type
(mag) Time Alt. Az. Time Alt. Az. Time Alt. Az.
11 Apr 5.0 19:54:31 10° SW 19:58:38 39° WNW 20:02:46 10° N visible
12 Apr 5.9 20:10:04 10° SW 20:13:44 26° WNW 20:17:24 10° N visible
13 Apr 3.5 18:46:22 10° S 18:50:42 69° E 18:55:02 10° NNE visible
13 Apr 6.5 20:26:00 10° WSW 20:28:54 17° WNW 20:31:49 10° NNW visible
14 Apr 3.8 19:01:15 10° SSW 19:05:37 74° W 19:09:58 10° N visible
14 Apr 6.9 20:42:41 10° WNW 20:44:09 11° WNW 20:45:38 10° NW visible
15 Apr 4.8 19:16:24 10° SSW 19:20:36 45° WNW 19:24:48 10° N visible
16 Apr 7.2 03:41:58 10° NE 03:43:41 12° ENE 03:45:24 10° E visible
16 Apr 5.8 19:31:51 10° SW 19:35:40 29° WNW 19:39:29 10° N visible
17 Apr 6.5 19:47:38 10° WSW 19:50:49 19° WNW 19:53:59 10° NNW visible
18 Apr 6.9 20:03:59 10° W 20:06:02 13° WNW 20:08:05 10° NNW visible
20 Apr 7.6 03:04:40 10° NE 03:05:32 10° ENE 03:06:24 10° ENE visible
